Flag Weather past 2 weeks in Mount Pearl, Newfoundland and Labrador, Canada

Now
27 °F

Passing clouds.


Feels Like: 14 °F
Forecast: 26 / 33 °F
Wind: 17 mph from Northwest

Location: St. John's

Current Time: Nov 24, 2014 at 6:10:35 AM

Latest Report: Nov 24, 2014 at 5:30 AM


Visibility: 15 mi

Pressure: 30.17 "Hg

Humidity: 74%

Dew point: 19 °F

Location of Mount PearlLocation

Historic Weather in Mount Pearl — Graph

°F

Mount Pearl temperature yesterday

Maximum temperature yesterday: 36 °F (at 12:30 PM)
Minimum temperature yesterday: 28 °F (at 12:30 AM)
Average temperature yesterday: 33 °F

Past Weeks' High & Low Weather Summary

 TemperatureHumidityPressure
High61 °F (Nov 18, 1:30 PM)100% (Nov 10, 8:30 AM)30.29 "Hg (Nov 10, 8:30 AM)
Low25 °F (Nov 22, 6:30 AM)38% (Nov 11, 10:30 PM)29.32 "Hg (Nov 15, 6:30 AM)
Average37 °F79%29.88 "Hg
* Reported Nov 9 4:30 AM — Nov 24 4:30 AM, Mount Pearl, Weather by CustomWeather, © 2014

Note: Actual official high and low records may vary slightly from our data, if they occured in-between our weather recording intervals... More about our weather records

Advertising

Mount Pearl weather history for previous 24 hours

 ConditionsComfort  
Time TempWeatherWind HumidityBarometerVisibility
4:30 AM
Nov 24
28 °FPassing clouds.15 mph69%30.15 "Hg15 mi
3:30 AM28 °FPassing clouds.17 mph74%30.10 "Hg15 mi
2:30 AM30 °FPassing clouds.9 mph75%30.07 "Hg15 mi
1:30 AM30 °FPassing clouds.21 mph75%30.03 "Hg15 mi
12:30 AM32 °FPassing clouds.21 mph69%30.00 "Hg15 mi
11:30 PM
Nov 23
34 °FPassing clouds.23 mph70%29.98 "Hg15 mi
10:30 PM34 °FPassing clouds.20 mph75%29.95 "Hg15 mi
9:30 PM36 °FPassing clouds.20 mph75%29.93 "Hg15 mi
8:30 PM34 °FPassing clouds.24 mph81%29.89 "Hg15 mi
7:30 PM34 °FClear.17 mph81%29.86 "Hg15 mi
6:30 PM34 °FPassing clouds.20 mph81%29.83 "Hg15 mi
5:30 PM34 °FPassing clouds.18 mph81%29.79 "Hg15 mi
4:30 PM34 °FPassing clouds.18 mph81%29.77 "Hg15 mi
3:30 PM34 °FScattered clouds.20 mph87%29.74 "Hg15 mi
2:30 PM36 °FBroken clouds.16 mph87%29.72 "Hg15 mi
1:30 PM36 °FSnow flurries. Mostly cloudy.17 mph93%29.70 "Hg15 mi
12:30 PM36 °FLow clouds.18 mph87%29.70 "Hg15 mi
12:21 PM34 °FMore clouds than sun.21 mph93%29.70 "Hg15 mi
11:30 AM34 °FSnow flurries. Mostly cloudy.16 mph93%29.72 "Hg4 mi
10:30 AM34 °FSprinkles. Low clouds.13 mph100%29.73 "Hg12 mi
9:30 AM34 °FMostly cloudy.14 mph93%29.72 "Hg15 mi
9:19 AM34 °FMostly cloudy.15 mph93%29.72 "Hg15 mi
8:30 AM34 °FSnow flurries. Overcast.16 mph87%29.72 "Hg15 mi
7:30 AM34 °FSnow flurries. Overcast.18 mph87%29.72 "Hg15 mi
6:30 AM32 °FOvercast.15 mph87%29.72 "Hg15 mi
Weather by CustomWeather, © 2014

See weather overviewHow to use our weather pages